This is the latest recevied weather packets stored in our database for station/object EA1HTW-13. If no packets are shown the sender has not sent any weather packets the latest 10 day(s).
| Time | Temp. | Humidity | Pressure | Rain* | Wind** | Luminosity | Snow |
|---|---|---|---|---|---|---|---|
| 1777648275 | 22.78° C | 47% | 1011.6 hPa | 0 mm | - | - | - |
| 1777647735 | 23.33° C | 48% | 1011.6 hPa | 0 mm | - | - | - |
| 1777647196 | 22.78° C | 51% | 1011.9 hPa | 0 mm | - | - | - |
| 1777646654 | 21.67° C | 55% | 1011.9 hPa | 0 mm | - | - | - |
| 1777646115 | 21.11° C | 54% | 1012 hPa | 0 mm | - | - | - |
| 1777645574 | 21.67° C | 53% | 1012.1 hPa | 0 mm | - | - | - |
| 1777645035 | 21.67° C | 54% | 1012.3 hPa | 0 mm | - | - | - |
| 1777644494 | 21.67° C | 52% | 1012.1 hPa | 0 mm | - | - | - |
| 1777643955 | 21.67° C | 53% | 1012.2 hPa | 0 mm | - | - | - |
| 1777643415 | 21.67° C | 54% | 1012.3 hPa | 0 mm | - | - | - |
| 1777642874 | 22.22° C | 56% | 1012.5 hPa | 0 mm | - | - | - |
| 1777642334 | 21.67° C | 60% | 1012.2 hPa | 0 mm | - | - | - |
| 1777641794 | 21.11° C | 61% | 1012.2 hPa | 0 mm | - | - | - |
| 1777641253 | 20.56° C | 61% | 1012.3 hPa | 0 mm | - | - | - |
| 1777640714 | 21.11° C | 62% | 1012.3 hPa | 0 mm | - | - | - |
| 1777640174 | 20° C | 64% | 1012.3 hPa | 0 mm | - | - | - |
| 1777639634 | 19.44° C | 65% | 1012.6 hPa | 0 mm | - | - | - |
| 1777639095 | 19.44° C | 65% | 1012.8 hPa | 0 mm | - | - | - |
| 1777638554 | 19.44° C | 66% | 1012.8 hPa | 0 mm | - | - | - |
| 1777638015 | 18.89° C | 67% | 1012.7 hPa | 0 mm | - | - | - |
| 1777637474 | 18.33° C | 69% | 1012.8 hPa | 0 mm | - | - | - |
| 1777636934 | 18.33° C | 68% | 1012.9 hPa | 0 mm | - | - | - |
| 1777636394 | 18.33° C | 66% | 1013 hPa | 0 mm | - | - | - |
| 1777635857 | 18.89° C | 67% | 1013 hPa | 0 mm | - | - | - |
| 1777635314 | 18.33° C | 66% | 1012.9 hPa | 0 mm | - | - | - |
* Rain latest hour (hover to see other rain measurements)
** Current wind speed in m/s (hover to see current wind gust speed)